Provincetown, Massachusetts, United States (02657)
Lat: 42.06N, Lon: 70.18W
Wx Zone: MAZ022
Local Info
Past Weather Observations for Today

NOTE: This archive is for the closest National Weather Service station to Provincetown. Information may differ from the station used for current weather conditions.

Time Weather Temperature Dewpoint Humidity Pressure Winds Precip Visibility
09:15
Clear
48°F / 9°C 39°F / 4°C 71% 30.18 in
(1022 mb)
Calm - 10SM
08:55
Clear
48°F / 9°C 39°F / 4°C 71% 30.21 in
(1023 mb)
Calm 0.01 in
(0.25 mm)
10SM
08:35
Clear
46°F / 8°C 39°F / 4°C 76% 30.21 in
(1023 mb)
Calm 0.01 in
(0.25 mm)
10SM
08:15
Clear
46°F / 8°C 39°F / 4°C 76% 30.21 in
(1023 mb)
Calm 0.01 in
(0.25 mm)
10SM
07:55
Clear
45°F / 7°C 39°F / 4°C 81% 30.21 in
(1023 mb)
Calm - 10SM
07:35
Clear
45°F / 7°C 39°F / 4°C 81% 30.24 in
(1024 mb)
Calm - 10SM
07:15
Clear
45°F / 7°C 39°F / 4°C 81% 30.24 in
(1024 mb)
Calm - 10SM
06:55
Clear
43°F / 6°C 39°F / 4°C 87% 30.24 in
(1024 mb)
Calm - 10SM
06:35
Fair
43°F / 6°C 39°F / 4°C 87% 30.24 in
(1024 mb)
Calm -
06:15
Clear
41°F / 5°C 39°F / 4°C 93% 30.24 in
(1024 mb)
Calm - 10SM
05:55
Clear
37°F / 3°C 37°F / 3°C 100% 30.24 in
(1024 mb)
Calm 0.01 in
(0.25 mm)
10SM
05:35
Clear
32°F / 0°C 30°F / -1°C 93% 30.24 in
(1024 mb)
Calm 0.01 in
(0.25 mm)
10SM
05:15
Clear
32°F / 0°C 30°F / -1°C 93% 30.24 in
(1024 mb)
Calm - 10SM
04:55
Clear
36°F / 2°C 34°F / 1°C 93% 30.24 in
(1024 mb)
Calm 0.02 in
(0.51 mm)
10SM
04:35
Clear
36°F / 2°C 34°F / 1°C 93% 30.24 in
(1024 mb)
Calm 0.01 in
(0.25 mm)
10SM
04:15
Clear
36°F / 2°C 34°F / 1°C 93% 30.24 in
(1024 mb)
Calm 0.01 in
(0.25 mm)
10SM
03:55
Clear
30°F / -1°C 28°F / -2°C 93% 30.27 in
(1025 mb)
Calm 0.02 in
(0.51 mm)
10SM
03:35
Clear
30°F / -1°C 28°F / -2°C 93% 30.27 in
(1025 mb)
Calm 0.01 in
(0.25 mm)
10SM
03:15
Clear
32°F / 0°C 30°F / -1°C 93% 30.27 in
(1025 mb)
Calm 0.01 in
(0.25 mm)
10SM
02:55
Clear
30°F / -1°C 28°F / -2°C 93% 30.27 in
(1025 mb)
Calm 0.01 in
(0.25 mm)
10SM
02:35
Clear
30°F / -1°C 28°F / -2°C 93% 30.27 in
(1025 mb)
Calm 0.01 in
(0.25 mm)
10SM
02:15
Clear
30°F / -1°C 28°F / -2°C 93% 30.27 in
(1025 mb)
Calm 0.01 in
(0.25 mm)
10SM
01:55
Clear
30°F / -1°C 27°F / -3°C 86% 30.3 in
(1026 mb)
Calm 0.02 in
(0.51 mm)
10SM
01:35
Clear
36°F / 2°C 34°F / 1°C 93% 30.3 in
(1026 mb)
Calm 0.02 in
(0.51 mm)
10SM
01:15
Clear
36°F / 2°C 34°F / 1°C 93% 30.3 in
(1026 mb)
Calm 0.02 in
(0.51 mm)
10SM
00:55
Clear
30°F / -1°C 28°F / -2°C 93% 30.3 in
(1026 mb)
Calm - 10SM
00:35
Clear
32°F / 0°C 28°F / -2°C 87% 30.33 in
(1027 mb)
Calm - 10SM
00:15
Clear
34°F / 1°C 32°F / 0°C 93% 30.33 in
(1027 mb)
Calm - 10SM
Time Weather Temperature Dewpoint Humidity Pressure Winds Precip Visibility


Weather for websites

WeatherForYou.com, LLC is not responsible for any damages or problems caused by this service. Current weather conditions are obtained from the closest station including government and personal stations which may have varying degrees of accuracy. Weather forecasts are derived from the NOAA NDFD. Like all things, this site belongs to Jesus Christ... He just trusts me to maintain it. If you have any questions or comments email webmaster@weatherforyou.com

Copyright © 2014, WeatherForYou.com LLC. All rights reserved.